Location: Peebles
(55.6412°N, 3.1714°W)
Time: 20:40:21
(UTC+00:00)

Cosmos 1980 Rocket - Visible Passes

Search period start: 19 January 2022 00:00
Search period end: 29 January 2022 00:00
Orbit: 830 x 849 km, 71.0° (Epoch: 19 January)

Date Brightness Start Highest point End Pass type
(mag) Time Alt. Az. Time Alt. Az. Time Alt. Az.
19 Jan 5.0 02:59:10 11° NNE 02:59:10 11° NNE 02:59:35 10° NNE visible
19 Jan 4.2 04:40:56 17° N 04:41:33 17° N 04:45:14 10° NE visible
19 Jan 3.7 06:22:41 11° NNW 06:27:26 30° NNE 06:32:20 10° E visible
20 Jan 5.1 02:43:45 10° NNE 02:43:45 10° NNE 02:43:50 10° NNE visible
20 Jan 4.2 04:25:31 17° N 04:25:45 17° N 04:29:24 10° NE visible
20 Jan 3.7 06:07:16 12° NNW 06:11:39 29° NNE 06:16:30 10° E visible
21 Jan 4.3 04:10:06 17° N 04:10:06 17° N 04:13:35 10° NE visible
21 Jan 3.8 05:51:51 14° NNW 05:55:52 28° NNE 06:00:40 10° E visible
21 Jan 2.3 07:35:01 10° NNW 07:40:41 84° ENE 07:46:17 10° SE visible
22 Jan 4.4 03:54:42 17° NNE 03:54:42 17° NNE 03:57:46 10° NE visible
22 Jan 3.8 05:36:27 15° NNW 05:40:04 27° NNE 05:44:50 10° E visible
22 Jan 2.3 07:19:16 10° NNW 07:24:56 81° NE 07:30:32 10° SE visible
23 Jan 4.5 03:39:18 16° NNE 03:39:18 16° NNE 03:41:56 10° NE visible
23 Jan 3.9 05:21:04 16° NNW 05:24:17 27° NNE 05:29:00 10° E visible
23 Jan 2.3 07:03:32 10° NNW 07:09:11 77° NE 07:14:47 10° SE visible
24 Jan 4.6 03:23:55 16° NNE 03:23:55 16° NNE 03:26:06 10° NE visible
24 Jan 3.9 05:05:41 18° NNW 05:08:30 26° NNE 05:13:10 10° E visible
24 Jan 2.4 06:47:47 10° NNW 06:53:26 74° NE 06:59:02 10° SE visible
25 Jan 4.7 03:08:33 15° NNE 03:08:33 15° NNE 03:10:17 10° NE visible
25 Jan 3.9 04:50:18 19° N 04:52:43 25° NNE 04:57:20 10° E visible
25 Jan 2.4 06:32:04 10° NNW 06:37:42 71° NE 06:43:17 10° SE visible
26 Jan 4.8 02:53:12 14° NNE 02:53:12 14° NNE 02:54:28 10° NE visible
26 Jan 4.0 04:34:58 21° N 04:36:55 25° NNE 04:41:30 10° E visible
26 Jan 2.5 06:16:43 12° NNW 06:21:57 68° NE 06:27:31 10° SE visible
27 Jan 5.0 02:37:52 12° NNE 02:37:52 12° NNE 02:38:40 10° NE visible
27 Jan 4.0 04:19:38 22° N 04:21:08 24° NNE 04:25:39 10° E visible
27 Jan 2.5 06:01:24 14° NNW 06:06:12 65° NE 06:11:46 10° SE visible
28 Jan 5.1 02:22:34 11° NE 02:22:34 11° NE 02:22:51 10° NE visible
28 Jan 4.0 04:04:20 23° N 04:05:20 24° NNE 04:09:49 10° E visible
28 Jan 2.6 05:46:06 17° NNW 05:50:27 63° NE 05:56:00 10° SE visible
28 Jan 3.0 07:29:14 10° NW 07:34:11 33° WSW 07:39:06 10° S visible
